Time,TemperatureF,DewpointF,PressureIn,WindDirection,WindDirectionDegrees,WindSpeedMPH,WindSpeedGustMPH,Humidity,HourlyPrecipIn,Conditions,Clouds,dailyrainin,SoftwareType,DateUTC
2013-04-22 00:00:00,53.5,13.4,30.42,ESE,104,2.0,3.0,20,0.00,,,0.00,Wunderground v.1.15,2013-04-22 07:00:00,
2013-04-22 00:10:00,54.9,12.1,30.42,ESE,120,2.0,2.0,18,0.00,,,0.00,Wunderground v.1.15,2013-04-22 07:10:00,
2013-04-22 00:20:00,53.0,11.8,30.42,SE,125,1.0,1.0,19,0.00,,,0.00,Wunderground v.1.15,2013-04-22 07:20:00,
2013-04-22 00:25:00,52.2,12.3,30.42,ESE,117,2.0,2.0,20,0.00,,,0.00,Wunderground v.1.15,2013-04-22 07:25:00,
2013-04-22 00:35:00,52.5,12.5,30.42,ESE,110,2.0,3.0,20,0.00,,,0.00,Wunderground v.1.15,2013-04-22 07:35:00,
2013-04-22 00:40:00,52.6,12.6,30.42,SE,124,2.0,2.0,20,0.00,,,0.00,Wunderground v.1.15,2013-04-22 07:40:00,
2013-04-22 00:50:00,51.7,11.9,30.42,ESE,123,2.0,2.0,20,0.00,,,0.00,Wunderground v.1.15,2013-04-22 07:50:00,
2013-04-22 00:55:00,51.1,12.5,30.42,ESE,121,2.0,2.0,21,0.00,,,0.00,Wunderground v.1.15,2013-04-22 07:55:00,
2013-04-22 01:05:00,50.5,12.0,30.42,ESE,118,2.0,3.0,21,0.00,,,0.00,Wunderground v.1.15,2013-04-22 08:05:00,
2013-04-22 01:10:00,50.4,11.9,30.42,ESE,117,2.0,2.0,21,0.00,,,0.00,Wunderground v.1.15,2013-04-22 08:10:00,
2013-04-22 01:20:00,49.9,12.5,30.41,SE,124,2.0,2.0,22,0.00,,,0.00,Wunderground v.1.15,2013-04-22 08:20:00,
2013-04-22 01:25:00,49.6,12.2,30.41,SE,125,2.0,2.0,22,0.00,,,0.00,Wunderground v.1.15,2013-04-22 08:25:00,
2013-04-22 01:35:00,49.7,12.3,30.41,ESE,107,3.0,3.0,22,0.00,,,0.00,Wunderground v.1.15,2013-04-22 08:35:00,
2013-04-22 01:40:00,50.3,12.8,30.41,ESE,104,3.0,3.0,22,0.00,,,0.00,Wunderground v.1.15,2013-04-22 08:40:00,
2013-04-22 01:50:00,50.5,13.0,30.41,ESE,122,2.0,2.0,22,0.00,,,0.00,Wunderground v.1.15,2013-04-22 08:50:00,
2013-04-22 01:55:00,50.7,12.1,30.40,ESE,120,2.0,2.0,21,0.00,,,0.00,Wunderground v.1.15,2013-04-22 08:55:00,
2013-04-22 02:05:00,50.9,12.3,30.40,ESE,120,2.0,3.0,21,0.00,,,0.00,Wunderground v.1.15,2013-04-22 09:05:00,
2013-04-22 02:10:00,50.7,13.2,30.40,SE,124,2.0,2.0,22,0.00,,,0.00,Wunderground v.1.15,2013-04-22 09:10:00,
2013-04-22 02:20:00,50.1,12.7,30.39,ESE,117,3.0,3.0,22,0.00,,,0.00,Wunderground v.1.15,2013-04-22 09:20:00,
2013-04-22 02:25:00,49.8,13.4,30.39,SE,131,3.0,3.0,23,0.00,,,0.00,Wunderground v.1.15,2013-04-22 09:25:00,
2013-04-22 02:35:00,50.2,13.8,30.39,SE,127,2.0,3.0,23,0.00,,,0.00,Wunderground v.1.15,2013-04-22 09:35:00,
2013-04-22 02:40:00,50.3,13.9,30.39,ESE,118,2.0,3.0,23,0.00,,,0.00,Wunderground v.1.15,2013-04-22 09:40:00,
2013-04-22 02:50:00,50.2,13.8,30.39,ESE,115,2.0,2.0,23,0.00,,,0.00,Wunderground v.1.15,2013-04-22 09:50:00,
2013-04-22 02:55:00,50.3,13.9,30.39,SE,124,2.0,2.0,23,0.00,,,0.00,Wunderground v.1.15,2013-04-22 09:55:00,
2013-04-22 03:05:00,50.5,14.0,30.39,ESE,102,2.0,2.0,23,0.00,,,0.00,Wunderground v.1.15,2013-04-22 10:05:00,
2013-04-22 03:10:00,50.7,14.2,30.39,ESE,115,2.0,2.0,23,0.00,,,0.00,Wunderground v.1.15,2013-04-22 10:10:00,
2013-04-22 03:20:00,51.3,13.7,30.39,ESE,122,2.0,2.0,22,0.00,,,0.00,Wunderground v.1.15,2013-04-22 10:20:00,
2013-04-22 03:25:00,51.3,13.7,30.39,ESE,120,2.0,2.0,22,0.00,,,0.00,Wunderground v.1.15,2013-04-22 10:25:00,
2013-04-22 03:35:00,51.3,13.7,30.38,SE,125,2.0,3.0,22,0.00,,,0.00,Wunderground v.1.15,2013-04-22 10:35:00,
2013-04-22 03:40:00,51.2,14.6,30.38,SE,127,3.0,3.0,23,0.00,,,0.00,Wunderground v.1.15,2013-04-22 10:40:00,
2013-04-22 03:50:00,50.4,13.9,30.39,SE,127,3.0,3.0,23,0.00,,,0.00,Wunderground v.1.15,2013-04-22 10:50:00,
2013-04-22 03:55:00,50.1,14.7,30.38,SE,127,3.0,3.0,24,0.00,,,0.00,Wunderground v.1.15,2013-04-22 10:55:00,
2013-04-22 04:00:00,49.9,14.5,30.38,SE,128,2.0,2.0,24,0.00,,,0.00,Wunderground v.1.15,2013-04-22 11:00:00,
2013-04-22 04:10:00,49.7,14.3,30.38,SE,125,2.0,2.0,24,0.00,,,0.00,Wunderground v.1.15,2013-04-22 11:10:00,
2013-04-22 04:20:00,49.4,15.0,30.38,SE,128,2.0,2.0,25,0.00,,,0.00,Wunderground v.1.15,2013-04-22 11:20:00,
2013-04-22 04:25:00,49.1,14.7,30.38,SE,129,2.0,2.0,25,0.00,,,0.00,Wunderground v.1.15,2013-04-22 11:25:00,
2013-04-22 04:35:00,49.0,14.7,30.38,SE,129,2.0,2.0,25,0.00,,,0.00,Wunderground v.1.15,2013-04-22 11:35:00,
2013-04-22 04:40:00,48.9,15.5,30.38,SE,124,2.0,2.0,26,0.00,,,0.00,Wunderground v.1.15,2013-04-22 11:40:00,
2013-04-22 04:50:00,49.0,15.6,30.38,ESE,121,2.0,2.0,26,0.00,,,0.00,Wunderground v.1.15,2013-04-22 11:50:00,
2013-04-22 04:55:00,49.2,15.7,30.38,ESE,121,2.0,3.0,26,0.00,,,0.00,Wunderground v.1.15,2013-04-22 11:55:00,
2013-04-22 05:05:00,48.9,15.5,30.38,SE,129,2.0,2.0,26,0.00,,,0.00,Wunderground v.1.15,2013-04-22 12:05:00,
2013-04-22 05:10:00,48.9,15.5,30.38,ESE,115,2.0,2.0,26,0.00,,,0.00,Wunderground v.1.15,2013-04-22 12:10:00,
2013-04-22 05:20:00,49.3,15.8,30.38,SE,136,2.0,2.0,26,0.00,,,0.00,Wunderground v.1.15,2013-04-22 12:20:00,
2013-04-22 05:25:00,49.3,15.8,30.38,SE,134,2.0,2.0,26,0.00,,,0.00,Wunderground v.1.15,2013-04-22 12:25:00,
2013-04-22 05:35:00,48.7,16.2,30.38,SE,134,1.0,2.0,27,0.00,,,0.00,Wunderground v.1.15,2013-04-22 12:35:00,
2013-04-22 05:40:00,48.5,16.0,30.38,SE,128,2.0,2.0,27,0.00,,,0.00,Wunderground v.1.15,2013-04-22 12:40:00,
2013-04-22 05:50:00,48.1,15.6,30.38,SE,132,2.0,2.0,27,0.00,,,0.00,Wunderground v.1.15,2013-04-22 12:50:00,
2013-04-22 05:55:00,47.8,16.2,30.38,SE,125,2.0,2.0,28,0.00,,,0.00,Wunderground v.1.15,2013-04-22 12:55:00,
2013-04-22 06:05:00,48.2,16.6,30.38,SE,129,2.0,2.0,28,0.00,,,0.00,Wunderground v.1.15,2013-04-22 13:05:00,
2013-04-22 06:10:00,48.7,17.0,30.38,SE,132,2.0,2.0,28,0.00,,,0.00,Wunderground v.1.15,2013-04-22 13:10:00,
2013-04-22 06:20:00,49.7,17.0,30.38,ESE,118,2.0,3.0,27,0.00,,,0.00,Wunderground v.1.15,2013-04-22 13:20:00,
2013-04-22 06:25:00,50.2,17.5,30.38,ESE,115,2.0,3.0,27,0.00,,,0.00,Wunderground v.1.15,2013-04-22 13:25:00,
2013-04-22 06:35:00,51.3,18.4,30.38,SE,132,3.0,3.0,27,0.00,,,0.00,Wunderground v.1.15,2013-04-22 13:35:00,
2013-04-22 06:40:00,52.0,18.1,30.38,SE,127,3.0,3.0,26,0.00,,,0.00,Wunderground v.1.15,2013-04-22 13:40:00,
2013-04-22 06:50:00,53.5,19.4,30.39,SE,132,2.0,2.0,26,0.00,,,0.00,Wunderground v.1.15,2013-04-22 13:50:00,
2013-04-22 06:55:00,54.4,20.2,30.39,SE,139,1.0,2.0,26,0.00,,,0.00,Wunderground v.1.15,2013-04-22 13:55:00,
2013-04-22 07:05:00,56.3,19.9,30.38,SE,142,0.0,3.0,24,0.00,,,0.00,Wunderground v.1.15,2013-04-22 14:05:00,
2013-04-22 07:10:00,57.1,19.6,30.38,SSW,195,1.0,1.0,23,0.00,,,0.00,Wunderground v.1.15,2013-04-22 14:10:00,
2013-04-22 07:20:00,58.6,20.9,30.39,South,191,1.0,1.0,23,0.00,,,0.00,Wunderground v.1.15,2013-04-22 14:20:00,
2013-04-22 07:25:00,58.8,21.0,30.39,SW,236,1.0,1.0,23,0.00,,,0.00,Wunderground v.1.15,2013-04-22 14:25:00,
2013-04-22 07:35:00,59.4,20.5,30.39,SSE,165,1.0,3.0,22,0.00,,,0.00,Wunderground v.1.15,2013-04-22 14:35:00,
2013-04-22 07:40:00,60.0,21.0,30.39,SSE,156,1.0,2.0,22,0.00,,,0.00,Wunderground v.1.15,2013-04-22 14:40:00,
2013-04-22 07:50:00,60.7,21.6,30.39,SE,124,2.0,2.0,22,0.00,,,0.00,Wunderground v.1.15,2013-04-22 14:50:00,
2013-04-22 07:55:00,61.3,21.0,30.39,SSE,160,2.0,2.0,21,0.00,,,0.00,Wunderground v.1.15,2013-04-22 14:55:00,
2013-04-22 08:05:00,62.4,21.9,30.38,SSE,166,2.0,3.0,21,0.00,,,0.00,Wunderground v.1.15,2013-04-22 15:05:00,
2013-04-22 08:10:00,62.7,21.0,30.38,South,188,3.0,3.0,20,0.00,,,0.00,Wunderground v.1.15,2013-04-22 15:10:00,
2013-04-22 08:20:00,63.7,20.6,30.38,SSE,147,3.0,3.0,19,0.00,,,0.00,Wunderground v.1.15,2013-04-22 15:20:00,
2013-04-22 08:25:00,64.3,19.8,30.38,SW,228,4.0,9.0,18,0.00,,,0.00,Wunderground v.1.15,2013-04-22 15:25:00,
2013-04-22 08:35:00,64.9,20.3,30.38,South,173,5.0,7.0,18,0.00,,,0.00,Wunderground v.1.15,2013-04-22 15:35:00,
2013-04-22 08:40:00,65.6,20.9,30.38,SSE,166,4.0,5.0,18,0.00,,,0.00,Wunderground v.1.15,2013-04-22 15:40:00,
2013-04-22 08:50:00,66.0,19.9,30.37,SSW,193,4.0,4.0,17,0.00,,,0.00,Wunderground v.1.15,2013-04-22 15:50:00,
2013-04-22 08:55:00,66.1,20.0,30.37,South,187,5.0,7.0,17,0.00,,,0.00,Wunderground v.1.15,2013-04-22 15:55:00,
2013-04-22 09:05:00,67.1,20.8,30.37,South,181,4.0,4.0,17,0.00,,,0.00,Wunderground v.1.15,2013-04-22 16:05:00,
2013-04-22 09:10:00,67.4,21.0,30.37,SSW,210,4.0,6.0,17,0.00,,,0.00,Wunderground v.1.15,2013-04-22 16:10:00,
2013-04-22 09:20:00,67.9,20.0,30.37,SSW,201,4.0,4.0,16,0.00,,,0.00,Wunderground v.1.15,2013-04-22 16:20:00,
2013-04-22 09:25:00,67.9,20.0,30.36,SSW,204,4.0,4.0,16,0.00,,,0.00,Wunderground v.1.15,2013-04-22 16:25:00,
2013-04-22 09:35:00,69.1,21.0,30.36,South,176,3.0,4.0,16,0.00,,,0.00,Wunderground v.1.15,2013-04-22 16:35:00,
2013-04-22 09:40:00,69.7,21.5,30.36,South,176,4.0,7.0,16,0.00,,,0.00,Wunderground v.1.15,2013-04-22 16:40:00,
2013-04-22 09:50:00,70.0,21.7,30.36,South,190,4.0,4.0,16,0.00,,,0.00,Wunderground v.1.15,2013-04-22 16:50:00,
2013-04-22 09:55:00,70.2,21.9,30.36,SW,225,4.0,4.0,16,0.00,,,0.00,Wunderground v.1.15,2013-04-22 16:55:00,
2013-04-22 10:00:00,70.4,20.5,30.36,SW,228,5.0,5.0,15,0.00,,,0.00,Wunderground v.1.15,2013-04-22 17:00:00,
2013-04-22 10:10:00,70.9,20.9,30.35,SW,220,4.0,7.0,15,0.00,,,0.00,Wunderground v.1.15,2013-04-22 17:10:00,
2013-04-22 10:20:00,72.3,22.0,30.35,SSE,155,4.0,4.0,15,0.00,,,0.00,Wunderground v.1.15,2013-04-22 17:20:00,
2013-04-22 10:25:00,72.5,20.5,30.35,SW,221,4.0,4.0,14,0.00,,,0.00,Wunderground v.1.15,2013-04-22 17:25:00,
2013-04-22 10:35:00,73.4,21.3,30.34,SSW,200,3.0,5.0,14,0.00,,,0.00,Wunderground v.1.15,2013-04-22 17:35:00,
2013-04-22 10:40:00,73.4,22.9,30.34,West,259,4.0,4.0,15,0.00,,,0.00,Wunderground v.1.15,2013-04-22 17:40:00,
2013-04-22 10:50:00,73.1,22.7,30.34,SW,219,5.0,7.0,15,0.00,,,0.00,Wunderground v.1.15,2013-04-22 17:50:00,
2013-04-22 10:55:00,73.5,21.3,30.33,South,183,5.0,7.0,14,0.00,,,0.00,Wunderground v.1.15,2013-04-22 17:55:00,
2013-04-22 11:05:00,73.8,21.6,30.33,WNW,299,6.0,7.0,14,0.00,,,0.00,Wunderground v.1.15,2013-04-22 18:05:00,
2013-04-22 11:10:00,73.6,21.4,30.33,West,278,6.0,6.0,14,0.00,,,0.00,Wunderground v.1.15,2013-04-22 18:10:00,
2013-04-22 11:20:00,74.8,20.6,30.32,NW,315,5.0,5.0,13,0.00,,,0.00,Wunderground v.1.15,2013-04-22 18:20:00,
2013-04-22 11:25:00,74.4,22.1,30.32,NW,307,4.0,5.0,14,0.00,,,0.00,Wunderground v.1.15,2013-04-22 18:25:00,
2013-04-22 11:35:00,76.5,22.0,30.31,West,276,4.0,4.0,13,0.00,,,0.00,Wunderground v.1.15,2013-04-22 18:35:00,
2013-04-22 11:40:00,76.2,21.7,30.30,WSW,250,3.0,3.0,13,0.00,,,0.00,Wunderground v.1.15,2013-04-22 18:40:00,
2013-04-22 11:50:00,76.2,21.7,30.30,NNW,335,5.0,10.0,13,0.00,,,0.00,Wunderground v.1.15,2013-04-22 18:50:00,
2013-04-22 11:55:00,76.3,21.8,30.30,WNW,300,5.0,10.0,13,0.00,,,0.00,Wunderground v.1.15,2013-04-22 18:55:00,
2013-04-22 12:05:00,76.1,21.6,30.29,WNW,294,7.0,7.0,13,0.00,,,0.00,Wunderground v.1.15,2013-04-22 19:05:00,
2013-04-22 12:10:00,76.5,22.0,30.29,WNW,302,7.0,7.0,13,0.00,,,0.00,Wunderground v.1.15,2013-04-22 19:10:00,
2013-04-22 12:20:00,77.2,22.5,30.28,South,187,6.0,7.0,13,0.00,,,0.00,Wunderground v.1.15,2013-04-22 19:20:00,
2013-04-22 12:25:00,76.9,20.4,30.27,South,172,5.0,7.0,12,0.00,,,0.00,Wunderground v.1.15,2013-04-22 19:25:00,
2013-04-22 12:30:00,77.6,22.8,30.27,WNW,287,5.0,5.0,13,0.00,,,0.00,Wunderground v.1.15,2013-04-22 19:30:00,
2013-04-22 12:35:00,77.9,19.1,30.26,West,266,6.0,7.0,11,0.00,,,0.00,Wunderground v.1.15,2013-04-22 19:35:00,
2013-04-22 12:40:00,77.8,21.1,30.26,West,266,7.0,8.0,12,0.00,,,0.00,Wunderground v.1.15,2013-04-22 19:40:00,
2013-04-22 12:50:00,78.2,21.4,30.25,WNW,290,8.0,8.0,12,0.00,,,0.00,Wunderground v.1.15,2013-04-22 19:50:00,
2013-04-22 12:55:00,78.5,21.6,30.25,WSW,243,6.0,9.0,12,0.00,,,0.00,Wunderground v.1.15,2013-04-22 19:55:00,
2013-04-22 13:05:00,78.8,21.9,30.25,NNW,338,7.0,7.0,12,0.00,,,0.00,Wunderground v.1.15,2013-04-22 20:05:00,
2013-04-22 13:10:00,78.7,23.7,30.24,SSE,159,6.0,6.0,13,0.00,,,0.00,Wunderground v.1.15,2013-04-22 20:10:00,
2013-04-22 13:20:00,79.1,22.1,30.24,NW,320,7.0,7.0,12,0.00,,,0.00,Wunderground v.1.15,2013-04-22 20:20:00,
2013-04-22 13:25:00,79.2,22.2,30.24,NW,309,8.0,11.0,12,0.00,,,0.00,Wunderground v.1.15,2013-04-22 20:25:00,
2013-04-22 13:35:00,78.0,21.2,30.24,West,270,8.0,13.0,12,0.00,,,0.00,Wunderground v.1.15,2013-04-22 20:35:00,
2013-04-22 13:40:00,78.8,21.9,30.24,WSW,257,7.0,7.0,12,0.00,,,0.00,Wunderground v.1.15,2013-04-22 20:40:00,
2013-04-22 13:50:00,78.5,21.6,30.24,NNW,338,8.0,8.0,12,0.00,,,0.00,Wunderground v.1.15,2013-04-22 20:50:00,
2013-04-22 13:55:00,79.0,20.0,30.24,SW,224,7.0,9.0,11,0.00,,,0.00,Wunderground v.1.15,2013-04-22 20:55:00,
2013-04-22 14:05:00,79.3,20.2,30.23,WNW,299,7.0,11.0,11,0.00,,,0.00,Wunderground v.1.15,2013-04-22 21:05:00,
2013-04-22 14:10:00,79.6,20.4,30.23,WSW,243,7.0,7.0,11,0.00,,,0.00,Wunderground v.1.15,2013-04-22 21:10:00,
2013-04-22 14:20:00,78.7,21.8,30.22,WNW,287,8.0,11.0,12,0.00,,,0.00,Wunderground v.1.15,2013-04-22 21:20:00,
2013-04-22 14:25:00,78.8,21.9,30.22,SW,229,8.0,12.0,12,0.00,,,0.00,Wunderground v.1.15,2013-04-22 21:25:00,
2013-04-22 14:35:00,78.9,21.9,30.21,WNW,285,8.0,9.0,12,0.00,,,0.00,Wunderground v.1.15,2013-04-22 21:35:00,
2013-04-22 14:40:00,78.7,21.8,30.21,WSW,239,8.0,8.0,12,0.00,,,0.00,Wunderground v.1.15,2013-04-22 21:40:00,
2013-04-22 14:50:00,78.1,21.3,30.20,West,280,9.0,9.0,12,0.00,,,0.00,Wunderground v.1.15,2013-04-22 21:50:00,
2013-04-22 14:55:00,78.2,21.4,30.19,WSW,240,9.0,9.0,12,0.00,,,0.00,Wunderground v.1.15,2013-04-22 21:55:00,
2013-04-22 15:00:00,78.8,21.9,30.19,WNW,283,8.0,10.0,12,0.00,,,0.00,Wunderground v.1.15,2013-04-22 22:00:00,
2013-04-22 15:10:00,78.5,19.6,30.19,WNW,299,9.0,18.0,11,0.00,,,0.00,Wunderground v.1.15,2013-04-22 22:10:00,
2013-04-22 15:20:00,78.3,21.5,30.18,WSW,245,8.0,10.0,12,0.00,,,0.00,Wunderground v.1.15,2013-04-22 22:20:00,
2013-04-22 15:25:00,78.5,21.6,30.18,NW,307,7.0,10.0,12,0.00,,,0.00,Wunderground v.1.15,2013-04-22 22:25:00,
2013-04-22 15:35:00,78.9,19.9,30.18,NW,305,8.0,14.0,11,0.00,,,0.00,Wunderground v.1.15,2013-04-22 22:35:00,
2013-04-22 15:40:00,78.3,21.5,30.17,WNW,294,8.0,8.0,12,0.00,,,0.00,Wunderground v.1.15,2013-04-22 22:40:00,
2013-04-22 15:50:00,78.8,21.9,30.17,SSW,208,6.0,8.0,12,0.00,,,0.00,Wunderground v.1.15,2013-04-22 22:50:00,
2013-04-22 15:55:00,78.6,19.7,30.17,West,280,7.0,8.0,11,0.00,,,0.00,Wunderground v.1.15,2013-04-22 22:55:00,
2013-04-22 16:05:00,77.5,18.8,30.17,WNW,290,10.0,12.0,11,0.00,,,0.00,Wunderground v.1.15,2013-04-22 23:05:00,
2013-04-22 16:10:00,77.7,19.0,30.17,WNW,287,10.0,10.0,11,0.00,,,0.00,Wunderground v.1.15,2013-04-22 23:10:00,
2013-04-22 16:20:00,77.8,21.1,30.17,West,270,8.0,8.0,12,0.00,,,0.00,Wunderground v.1.15,2013-04-22 23:20:00,
2013-04-22 16:25:00,77.7,21.0,30.17,WNW,288,7.0,15.0,12,0.00,,,0.00,Wunderground v.1.15,2013-04-22 23:25:00,
2013-04-22 16:35:00,77.7,19.0,30.17,West,262,9.0,9.0,11,0.00,,,0.00,Wunderground v.1.15,2013-04-22 23:35:00,
2013-04-22 16:40:00,77.7,19.0,30.17,WNW,299,7.0,14.0,11,0.00,,,0.00,Wunderground v.1.15,2013-04-22 23:40:00,
2013-04-22 16:50:00,76.9,20.4,30.17,West,271,9.0,9.0,12,0.00,,,0.00,Wunderground v.1.15,2013-04-22 23:50:00,
2013-04-22 16:55:00,77.0,18.4,30.17,WNW,295,9.0,9.0,11,0.00,,,0.00,Wunderground v.1.15,2013-04-22 23:55:00,
2013-04-22 17:05:00,76.6,18.1,30.16,WNW,297,8.0,13.0,11,0.00,,,0.00,Wunderground v.1.15,2013-04-23 00:05:00,
2013-04-22 17:10:00,76.4,18.0,30.17,WNW,283,8.0,8.0,11,0.00,,,0.00,Wunderground v.1.15,2013-04-23 00:10:00,
2013-04-22 17:20:00,75.9,19.6,30.17,WNW,284,8.0,9.0,12,0.00,,,0.00,Wunderground v.1.15,2013-04-23 00:20:00,
2013-04-22 17:25:00,75.7,19.4,30.17,WNW,285,7.0,9.0,12,0.00,,,0.00,Wunderground v.1.15,2013-04-23 00:25:00,
2013-04-22 17:35:00,74.9,18.8,30.17,NW,317,9.0,11.0,12,0.00,,,0.00,Wunderground v.1.15,2013-04-23 00:35:00,
2013-04-22 17:40:00,74.8,18.7,30.17,WNW,294,9.0,9.0,12,0.00,,,0.00,Wunderground v.1.15,2013-04-23 00:40:00,
2013-04-22 17:50:00,74.6,20.5,30.17,NW,314,7.0,10.0,13,0.00,,,0.00,Wunderground v.1.15,2013-04-23 00:50:00,
2013-04-22 17:55:00,74.3,20.2,30.17,West,278,8.0,10.0,13,0.00,,,0.00,Wunderground v.1.15,2013-04-23 00:55:00,
2013-04-22 18:05:00,73.7,19.8,30.17,SW,231,8.0,10.0,13,0.00,,,0.00,Wunderground v.1.15,2013-04-23 01:05:00,
2013-04-22 18:10:00,73.8,19.8,30.17,WNW,288,7.0,7.0,13,0.00,,,0.00,Wunderground v.1.15,2013-04-23 01:10:00,
2013-04-22 18:20:00,73.2,19.4,30.17,WNW,300,7.0,7.0,13,0.00,,,0.00,Wunderground v.1.15,2013-04-23 01:20:00,
2013-04-22 18:25:00,72.9,19.1,30.17,West,266,7.0,7.0,13,0.00,,,0.00,Wunderground v.1.15,2013-04-23 01:25:00,
2013-04-22 18:35:00,72.2,18.6,30.17,WSW,238,6.0,9.0,13,0.00,,,0.00,Wunderground v.1.15,2013-04-23 01:35:00,
2013-04-22 18:40:00,71.7,18.2,30.17,NW,311,6.0,9.0,13,0.00,,,0.00,Wunderground v.1.15,2013-04-23 01:40:00,
2013-04-22 18:50:00,70.7,19.1,30.17,WNW,302,7.0,7.0,14,0.00,,,0.00,Wunderground v.1.15,2013-04-23 01:50:00,
2013-04-22 18:55:00,70.0,18.6,30.17,West,266,5.0,7.0,14,0.00,,,0.00,Wunderground v.1.15,2013-04-23 01:55:00,
2013-04-22 19:05:00,69.0,17.8,30.18,West,280,5.0,11.0,14,0.00,,,0.00,Wunderground v.1.15,2013-04-23 02:05:00,
2013-04-22 19:10:00,68.4,18.9,30.18,West,271,5.0,6.0,15,0.00,,,0.00,Wunderground v.1.15,2013-04-23 02:10:00,
2013-04-22 19:20:00,67.2,17.9,30.18,West,273,4.0,4.0,15,0.00,,,0.00,Wunderground v.1.15,2013-04-23 02:20:00,
2013-04-22 19:25:00,67.0,17.8,30.18,WNW,295,4.0,4.0,15,0.00,,,0.00,Wunderground v.1.15,2013-04-23 02:25:00,
2013-04-22 19:35:00,66.4,18.8,30.18,West,259,4.0,5.0,16,0.00,,,0.00,Wunderground v.1.15,2013-04-23 02:35:00,
2013-04-22 19:40:00,65.9,18.4,30.18,NW,323,3.0,3.0,16,0.00,,,0.00,Wunderground v.1.15,2013-04-23 02:40:00,
2013-04-22 19:50:00,65.1,17.7,30.19,West,267,3.0,3.0,16,0.00,,,0.00,Wunderground v.1.15,2013-04-23 02:50:00,
2013-04-22 19:55:00,64.6,17.3,30.19,WNW,295,2.0,3.0,16,0.00,,,0.00,Wunderground v.1.15,2013-04-23 02:55:00,
2013-04-22 20:05:00,63.4,17.8,30.19,NW,305,2.0,3.0,17,0.00,,,0.00,Wunderground v.1.15,2013-04-23 03:05:00,
2013-04-22 20:10:00,63.0,17.4,30.20,West,276,2.0,2.0,17,0.00,,,0.00,Wunderground v.1.15,2013-04-23 03:10:00,
2013-04-22 20:20:00,62.2,18.1,30.20,WNW,284,2.0,2.0,18,0.00,,,0.00,Wunderground v.1.15,2013-04-23 03:20:00,
2013-04-22 20:25:00,61.9,17.9,30.20,West,281,2.0,2.0,18,0.00,,,0.00,Wunderground v.1.15,2013-04-23 03:25:00,
2013-04-22 20:35:00,61.4,17.5,30.21,WNW,287,2.0,2.0,18,0.00,,,0.00,Wunderground v.1.15,2013-04-23 03:35:00,
2013-04-22 20:40:00,61.1,17.2,30.21,WNW,293,2.0,2.0,18,0.00,,,0.00,Wunderground v.1.15,2013-04-23 03:40:00,
2013-04-22 20:50:00,61.1,17.2,30.21,West,271,1.0,1.0,18,0.00,,,0.00,Wunderground v.1.15,2013-04-23 03:50:00,
2013-04-22 20:55:00,60.8,17.0,30.21,WSW,257,1.0,1.0,18,0.00,,,0.00,Wunderground v.1.15,2013-04-23 03:55:00,
2013-04-22 21:05:00,60.1,17.6,30.21,WSW,257,0.0,1.0,19,0.00,,,0.00,Wunderground v.1.15,2013-04-23 04:05:00,
2013-04-22 21:10:00,59.9,17.5,30.21,West,262,0.0,0.0,19,0.00,,,0.00,Wunderground v.1.15,2013-04-23 04:10:00,
2013-04-22 21:20:00,60.1,17.6,30.21,SW,229,1.0,1.0,19,0.00,,,0.00,Wunderground v.1.15,2013-04-23 04:20:00,
2013-04-22 21:25:00,59.8,17.4,30.21,SE,130,0.0,1.0,19,0.00,,,0.00,Wunderground v.1.15,2013-04-23 04:25:00,
2013-04-22 21:35:00,58.6,17.6,30.22,ESE,108,0.0,0.0,20,0.00,,,0.00,Wunderground v.1.15,2013-04-23 04:35:00,
2013-04-22 21:40:00,57.9,17.0,30.22,ESE,111,0.0,0.0,20,0.00,,,0.00,Wunderground v.1.15,2013-04-23 04:40:00,
2013-04-22 21:50:00,57.4,17.7,30.21,ESE,113,0.0,0.0,21,0.00,,,0.00,Wunderground v.1.15,2013-04-23 04:50:00,
2013-04-22 21:55:00,57.3,17.6,30.21,ESE,115,0.0,0.0,21,0.00,,,0.00,Wunderground v.1.15,2013-04-23 04:55:00,
2013-04-22 22:05:00,56.6,17.1,30.21,ESE,115,0.0,0.0,21,0.00,,,0.00,Wunderground v.1.15,2013-04-23 05:05:00,
2013-04-22 22:10:00,56.3,17.9,30.21,ESE,117,0.0,0.0,22,0.00,,,0.00,Wunderground v.1.15,2013-04-23 05:10:00,
2013-04-22 22:20:00,56.1,17.7,30.21,ESE,115,0.0,0.0,22,0.00,,,0.00,Wunderground v.1.15,2013-04-23 05:20:00,
2013-04-22 22:25:00,56.2,17.8,30.21,ESE,105,0.0,2.0,22,0.00,,,0.00,Wunderground v.1.15,2013-04-23 05:25:00,
2013-04-22 22:35:00,56.5,18.1,30.20,ESE,119,2.0,2.0,22,0.00,,,0.00,Wunderground v.1.15,2013-04-23 05:35:00,
2013-04-22 22:40:00,56.9,18.4,30.20,ESE,111,1.0,2.0,22,0.00,,,0.00,Wunderground v.1.15,2013-04-23 05:40:00,
2013-04-22 22:50:00,56.8,18.3,30.20,SE,134,1.0,1.0,22,0.00,,,0.00,Wunderground v.1.15,2013-04-23 05:50:00,
2013-04-22 22:55:00,57.1,18.6,30.20,ESE,110,1.0,1.0,22,0.00,,,0.00,Wunderground v.1.15,2013-04-23 05:55:00,
2013-04-22 23:05:00,56.5,18.1,30.20,ESE,123,1.0,2.0,22,0.00,,,0.00,Wunderground v.1.15,2013-04-23 06:05:00,
2013-04-22 23:10:00,55.8,18.5,30.20,ESE,107,1.0,2.0,23,0.00,,,0.00,Wunderground v.1.15,2013-04-23 06:10:00,
2013-04-22 23:20:00,53.7,17.7,30.20,SE,127,3.0,3.0,24,0.00,,,0.00,Wunderground v.1.15,2013-04-23 06:20:00,
2013-04-22 23:25:00,53.3,18.3,30.19,ESE,111,2.0,3.0,25,0.00,,,0.00,Wunderground v.1.15,2013-04-23 06:25:00,
2013-04-22 23:35:00,53.2,18.2,30.19,ESE,117,2.0,2.0,25,0.00,,,0.00,Wunderground v.1.15,2013-04-23 06:35:00,
2013-04-22 23:40:00,53.0,19.0,30.19,ESE,123,2.0,2.0,26,0.00,,,0.00,Wunderground v.1.15,2013-04-23 06:40:00,
2013-04-22 23:50:00,52.6,18.6,30.19,ESE,118,3.0,3.0,26,0.00,,,0.00,Wunderground v.1.15,2013-04-23 06:50:00,
2013-04-22 23:55:00,52.6,18.6,30.19,SE,134,3.0,3.0,26,0.00,,,0.00,Wunderground v.1.15,2013-04-23 06:55:00,